Home   Weather   Wörgl   Past weeks

Flag for Austria Past Weather in Wörgl, Tyrol, Austria — Yesterday and Last 2 Weeks

Now
10 °F

Frigid.


Feels Like: 10 °F
Forecast: 21 / 40 °F
Wind: 1 mph from Southwest

Location: Kufstein

Current Time: Jan 20, 2017 at 9:10:30 am

Latest Report: Jan 20, 2017 at 8:00 am


Visibility: N/A

Pressure: 30.63 "Hg (28.64 "Hg at 514m altitude)

Humidity: 87%

Dew Point: 7 °F

Location of WörglLocation

Past Weather in Wörgl — Graph

°F

Wörgl Temperature Yesterday

Maximum temperature yesterday: 24 °F (at 3:00 pm)
Minimum temperature yesterday: 6 °F (at 7:00 am)
Average temperature yesterday: 13 °F

High & Low Weather Summary for the Past Weeks

 TemperatureHumidityPressure
High40 °F (Jan 13, 10:00 am)97% (Jan 12, 2:00 am)30.85 "Hg (Jan 12, 2:00 am)
Low0 °F (Jan 7, 6:00 am)42% (Jan 13, 3:00 pm)29.47 "Hg (Jan 13, 3:00 am)
Average23 °F85%30.30 "Hg
* Reported Jan 5 7:00 am — Jan 20 7:00 am, Wörgl, Weather by CustomWeather, © 2017

Note: Actual official high and low records may vary slightly from our data, if they occured in-between our weather recording intervals... More about our weather records

Advertising

Wörgl Weather History for the Previous 24 Hours

Scroll right to see more
 ConditionsComfort  
Time TempWeatherWind HumidityBarometerVisibility
7:00 am
Fri, Jan 20
10 °FClear.2 mph89%30.62 "Hg6 mi
6:00 am10 °FCold.1 mph87%30.63 "HgN/A
5:00 am10 °FFrigid.1 mph88%30.63 "HgN/A
4:00 am10 °FFrigid.1 mph88%30.64 "HgN/A
3:00 am10 °FCold.1 mph87%30.65 "HgN/A
2:00 am10 °FCold.1 mph87%30.65 "HgN/A
1:00 am11 °FCold.1 mph87%30.65 "HgN/A
12:00 am12 °FCold.1 mph89%30.65 "HgN/A
11:00 pm
Thu, Jan 19
11 °FCold.No wind86%30.66 "HgN/A
10:00 pm11 °FCold.1 mph88%30.66 "HgN/A
9:00 pm12 °FCold.1 mph89%30.64 "HgN/A
8:00 pm14 °FCold.No wind86%30.63 "HgN/A
7:00 pm15 °FCold.No wind89%30.62 "HgN/A
6:00 pm17 °FCold.No wind84%30.60 "HgN/A
5:00 pm20 °FCold.1 mph74%30.58 "HgN/A
4:00 pm23 °FCold.1 mph72%30.56 "HgN/A
3:00 pm24 °FCold.1 mph66%30.57 "HgN/A
2:00 pm22 °FCold.1 mph69%30.58 "HgN/A
1:00 pm19 °FCold.No wind74%30.61 "HgN/A
12:00 pm16 °FCold.1 mph77%30.64 "HgN/A
11:00 am10 °FFrigid.1 mph84%30.68 "HgN/A
10:00 am8 °FFrigid.1 mph85%30.69 "HgN/A
9:00 am7 °FFrigid.1 mph85%30.70 "HgN/A
Weather by CustomWeather, © 2017

See weather overviewHow to use our weather pages